weather.gov     
National Weather Service

Regional Weather Roundup
NWS Homepage
This page is being discontinued on March 12, 2014.
The same data is available at this site. Please update your bookmarks.
Thank you, and we apologize for the inconvenience.
Please send an email to SR-SRH.Webmaster@noaa.gov with any concerns.


Current Version
Previous Version:    01  02  03  04  05  06  07  08  09  10  11  12  13  14  15  16  17  18  19  20  21  22  23  24  25  26  27  
[Printable]
031
ASUS45 KBOI 310610
RWRID
WEATHER ROUNDUP FOR IDAHO
NATIONAL WEATHER SERVICE BOISE ID
1200 AM MDT SUN AUG 31 2014

NOTE: "FAIR" INDICATES FEW OR NO CLOUDS BELOW 12000 FEET
WITH NO SIGNIFICANT WEATHER AND/OR OBSTRUCTIONS TO VISIBILITY

IDZ012-014-310700-
SOUTHWEST IDAHO


CITY           SKY/WX    TMP DP  RH WIND       PRES   REMARKS
BOISE          MOCLDY    57  51  80 W6        29.94R
CALDWELL       MOCLDY    57  43  58 W8        29.96S
MOUNTAIN HOME  CLOUDY    58  55  90 NW13      29.93R
$$

IDZ016-017-310700-
SOUTHCENTRAL IDAHO


CITY           SKY/WX    TMP DP  RH WIND       PRES   REMARKS
BURLEY         CLOUDY    59  47  64 W16G26    29.93R
JEROME         CLOUDY    56  50  80 SW14      29.96R
TWIN FALLS     CLOUDY    57  49  74 W18       29.96R
$$

IDZ019>023-310700-
SOUTHEAST IDAHO


CITY           SKY/WX    TMP DP  RH WIND       PRES   REMARKS
IDAHO FALLS    CLOUDY    54  47  77 N6        29.88F
POCATELLO      CLOUDY    64  42  44 SW12      29.89R
REXBURG        MOCLDY    55  42  61 E9G18     29.92R
$$

IDZ006-010-011-018-031-032-310700-
CENTRAL IDAHO MOUNTAINS


CITY           SKY/WX    TMP DP  RH WIND       PRES   REMARKS
MCCALL         LGT RAIN  51  44  77 SE5       29.97S
HAILEY         MOCLDY    61  37  41 SW12G18   29.94R
STANLEY          N/A     47  42  83 NE3       30.04R
SALMON         CLOUDY    55  48  76 CALM      29.92R
CHALLIS        CLOUDY    58  42  55 N10       29.91S
$$

IDZ002-004-006-007-026-310700-
NORTHERN IDAHO


CITY           SKY/WX    TMP DP  RH WIND       PRES   REMARKS
LEWISTON       PTCLDY    65  48  54 S8        29.87R
LOWELL           N/A     59  58  96 CALM      29.92S
COEUR D`ALENE  CLOUDY    61  50  67 SW5       29.86R
MULLAN PASS    CLOUDY    46  42  86 VRB5      29.95S
$$




U.S. Dept. of Commerce
NOAA National Weather Service
1325 East West Highway
Silver Spring, MD 20910
E-mail: w-nws.webmaster@noaa.gov
Page last modified: May 16, 2007
NATIONAL WEATHER SERVICE: for Safety, for Work, for Fun - FOR LIFE